Location: Unspecified
(0.0000°N, 0.0000°E)
Time: 01:17:00
(UTC+00:00)

Envisat - Pass Details

Date: 02 July 2022
Orbit: 764 x 765 km, 98.2° (Epoch: 28 June)

Event Time Altitude Azimuth Distance (km) Brightness Sun altitude
Rises 05:21:01 0° 332° (NNW) 3,214 6.2 -9.9°
Reaches altitude 10° 05:25:31 10° 294° (WNW) 2,294 5.1 -8.9°
Maximum altitude 05:26:31 11° 283° (WNW) 2,256 5.0 -8.6°
Drops below altitude 10° 05:27:31 10° 271° (W) 2,296 4.9 -8.4°
Enters shadow 05:28:24 - 261° (W) 2,391 4.9 -8.2°
